TimeEDT,TemperatureF,Dew PointF,Humidity,Sea Level PressureIn,VisibilityMPH,Wind Direction,Wind SpeedMPH,Gust SpeedMPH,PrecipitationIn,Events,Conditions,WindDirDegrees,DateUTC
12:54 AM,42.1,33.1,70,29.94,10.0,NNW,8.1,-,0.00,,Partly Cloudy,330,2013-04-14 04:54:00
1:54 AM,37.0,32.0,82,29.93,10.0,SSW,4.6,-,N/A,,Clear,210,2013-04-14 05:54:00
2:54 AM,37.0,33.1,86,29.94,10.0,SW,5.8,-,N/A,,Overcast,230,2013-04-14 06:54:00
3:54 AM,39.0,34.0,82,29.94,10.0,West,8.1,-,N/A,,Overcast,260,2013-04-14 07:54:00
4:54 AM,39.0,35.1,86,29.95,10.0,WNW,9.2,-,N/A,,Overcast,290,2013-04-14 08:54:00
5:54 AM,39.0,34.0,82,29.96,10.0,NW,9.2,-,0.00,,Overcast,310,2013-04-14 09:54:00
6:54 AM,37.9,32.0,79,29.97,10.0,NW,10.4,-,N/A,,Partly Cloudy,310,2013-04-14 10:54:00
7:54 AM,42.1,32.0,67,29.99,10.0,WNW,10.4,-,N/A,,Scattered Clouds,290,2013-04-14 11:54:00
8:54 AM,42.1,30.0,62,29.99,10.0,WNW,12.7,23.0,N/A,,Overcast,290,2013-04-14 12:54:00
9:54 AM,39.9,30.0,68,30.01,10.0,West,12.7,23.0,N/A,,Overcast,280,2013-04-14 13:54:00
10:54 AM,43.0,30.0,60,30.01,10.0,West,13.8,18.4,N/A,,Overcast,270,2013-04-14 14:54:00
11:54 AM,43.0,28.0,56,30.02,10.0,WNW,10.4,-,0.00,,Overcast,290,2013-04-14 15:54:00
12:54 PM,45.0,26.1,48,30.01,10.0,WSW,11.5,-,N/A,,Overcast,250,2013-04-14 16:54:00
1:54 PM,45.0,25.0,46,30.02,10.0,WNW,15.0,-,N/A,,Overcast,300,2013-04-14 17:54:00
2:54 PM,46.9,24.1,41,30.04,10.0,WNW,19.6,27.6,N/A,,Mostly Cloudy,300,2013-04-14 18:54:00
3:54 PM,46.0,24.1,42,30.04,10.0,WNW,15.0,28.8,N/A,,Scattered Clouds,290,2013-04-14 19:54:00
4:54 PM,44.1,24.1,45,30.06,10.0,WNW,19.6,26.5,N/A,,Mostly Cloudy,300,2013-04-14 20:54:00
5:54 PM,43.0,21.9,43,30.09,10.0,WNW,17.3,26.5,N/A,,Mostly Cloudy,300,2013-04-14 21:54:00
6:54 PM,42.1,23.0,47,30.12,10.0,WNW,8.1,-,N/A,,Mostly Cloudy,300,2013-04-14 22:54:00
7:54 PM,41.0,23.0,49,30.14,10.0,WNW,9.2,-,N/A,,Partly Cloudy,290,2013-04-14 23:54:00
8:54 PM,39.0,24.1,55,30.18,10.0,WNW,10.4,-,N/A,,Clear,300,2013-04-15 00:54:00
9:54 PM,37.0,24.1,59,30.20,10.0,WNW,9.2,-,N/A,,Clear,300,2013-04-15 01:54:00
10:54 PM,36.0,24.1,62,30.22,10.0,WNW,9.2,-,N/A,,Clear,290,2013-04-15 02:54:00
11:54 PM,34.0,24.1,67,30.23,10.0,WNW,8.1,-,N/A,,Clear,290,2013-04-15 03:54:00